loading
|

DELTA 1 R/B, 3036

Orbit data source: Space-Track

DELTA 1 R/B, 3036 is space debris in LEO originally from a launch on Fri, 10 Nov 1967 UTC launched from the Air Force Western Test Range (AFWTR). Debris objects in space refer to the collection of defunct objects orbiting the Earth. Examples of debris include non-operational satellites, rocket bodies, and fragments generated from explosions, collisions, or faulty payload assembly.

Loading next visibility...
Loading greatness...
DELTA 1 R/B details
Identifier
3036, 1967-114B
Orbit
LEO
Last TLE update13 hours ago
Origin
Flag of USGSFC (US)
ManufacturerUTC
MissionSpacecraft
Bus & MotorFW4, Unknown motor
Mass~40 kg wet, ~40 kg dry
Launch date (UTC)
1967-11-10 (57 years ago)
Launch vehicleUnknown
Launch site
Air Force Western Test Range (AFWTR)
Object type
Payload
Rocket body
Debris
Shape & HBRCyl, 1.5 m
Radar Cross Section0.687 m², Medium (>0.1 m² and < 1m²)

Expand to show TLE details & history

TLE from 13 hours ago
0 DELTA 1 R/B
1 03036U 67114B   24278.51845145 -.00000015  00000-0  20026-3 0  9997
2 03036 102.0303   0.5339 0047861 242.8520 128.1558 12.54124186604545
Epoch: 2024-10-04T12:26Z
Definitive object data (Epoch: 2024-10-04T12:26:34.205Z)
Latitude11.14121°
Longitude157.80983°
Altitude1,472.363 km
Speed7.117 km/s
True Right ascension23h 52m 33s
True Declination11° 04' 56"
Sunlit
Object was in full shadow at TLE epoch
Predictive object data (real-time)
Latitude-50.2209°
Longitude-34.018°
Altitude1,429.676 km
Speed7.163 km/s
Apparent Right ascension09h 05m 19s
Apparent Declination-49° 36' 59"
Sunlit
Object is in daylight
Predictive observer data (real-time)
Local Sidereal Time19:02:33
Azimuth235.566° WSW
Elevation-66.361°
Doppler factor1
Orbital elements
Apogee1,482.291 km
Perigee1,407.408 km
Semi-major axis7,822.987 km
Eccentricity0.0047861
Inclination102.0303°
RAAN0.5339°
Arg. of periapsis242.852°
True anomaly128.58547°
Mean anomaly128.1558°
Eccentric anomaly128.37079°
Mean motion3.13678 °/min
BSTAR0.00020026
Period114.77 mins
No data available
No data available
Other satellites on launch #114 in the year 1967 (1967-11-10 UTC)

DELTA 1 R/B Visibility forecast

Observer location: 39.9160978°, -105.1181434

DELTA 1 R/B is not visible in the next 10 days
Span
Click to sort rows by Start time (UTC) header in descending order
Start Az.
Max El. time (UTC)
Max El. Az.
Max El.
End time (UTC)
End Az.